User: anonymous   Login
Location: Cosy Dell
(34.2789°N, 117.4537°W)
Time: 13:43:26
(UTC+00:00)
Language:

Cosmos 1607 - Orbit

View from above orbital plane
View from above orbital plane
View from above satellite
View from above satellite

Ground track
Ground track

The orbit data is extracted from the following two-line orbital elements,

1 15378U 84112A   20274.86461325 -.00000091  00000-0 -20467-5 0  9996
2 15378  64.9924  59.5519 0055569 304.8735  54.7107 13.83567501816710
Epoch (UTC): 30 September 2020 20:45:02
Eccentricity: 0.0055569
inclination: 64.9924°
perigee height: 910 km
apogee height: 992 km
right ascension of ascending node: 59.5519°
argument of perigee: 304.8735°
revolutions per day: 13.83567501
mean anomaly at epoch: 54.7107°
orbit number at epoch: 81671

The dashed part of the orbit path shows where the satellite is in the earth's shadow,  

DLR